星链-5717 (STARLINK-5717 )

导读

STARLINK-5717是美国太空探索技术公司SpaceX于2023年2月12日发射的星链(Starlink)系列卫星,属于全球低轨卫星互联网星座的组成部分。星链项目旨在通过部署数千颗低轨卫星,为全球尤其是偏远地区提供高速、低延迟的宽带互联网服务,目前已大规模部署并持续扩展星座规模。卫星运行在近地轨道,服务全球用户接入网络,同时星链也引发了关于太空拥堵和天文观测影响的讨论。

Basic Information
目录编号:
55618
目录名称:
STARLINK-5717
国际标识:
2023-020BB
轨道中心:
EARTH
卫星名称:
星链-5717
卫星全名:
星链-5717 (STARLINK-5717 )
卫星状态:
在轨 (已飞行1219 天)
发射日期:
2023-02-12 UTC
国别 :
美国 (US)
星等 :
--
Orbit Information
数据来源 国际轨道数据 AOE轨道数据
星历时间 2026-06-13T15:15:50+0800
1天前
查看轨道信息
2026-06-15T02:00:00+0800
10小时前
查看轨道信息
半长轴 6861.187km 6861.211km
偏心率 0.0001897 0.0001956
轨道倾角 43.010° 43.003°
近地点辐角 275.871° 277.903°
升交点赤经 174.128° 165.959°
平近点角 84.192° 130.758°
近地点 481.748km 481.731km
远地点 484.352km 484.417km
周期 94.267分钟 94.267分钟
每日圈数 15.275797 15.275719
Detailed Information
固有亮度:
5
最大亮度:
2.5
卫星平台:
Starlink v1.5
覆盖范围:
全球
运营商:
太空探索技术公司
运营商所在国:
美国
制造商(研发单位):
太空探索技术公司
制造商所在国:
美国
使用方式:
暂无
Satellite Introduction
星链(Starlink)计划是由太空探索技术公司(SpaceX)提出的一个巨型低轨卫星互联网星座项目,计划在2019年至2024年间在太空搭建由约1.2万颗卫星组成的“星链”网络,其中1584颗将部署在地球上空550千米处的近地轨道,并从2020年开始工作。该卫星仍在工作。
2D Orbit Map
3D Orbit Map
Orbit Altitude Analysis Chart
Orbit Inclination Analysis Chart
Orbit Comprehensive Analysis Chart
View Comprehensive Chart